Location: Newark
(35.7219°N, 0.3536°E)
Time: 05:00:50
(UTC+00:00)

ISS - Visible Passes

Search period start: 21 July 2019 00:00
Search period end: 31 July 2019 00:00
Orbit: 409 x 418 km, 51.6° (Epoch: 21 July)

Date Brightness Start Highest point End Pass type
(mag) Time Alt. Az. Time Alt. Az. Time Alt. Az.
21 Jul -0.7 20:10:24 10° WNW 20:12:50 18° NNW 20:15:15 10° NNE visible
26 Jul -0.3 22:34:50 10° N 22:35:01 10° N 22:35:01 10° N visible
28 Jul -0.3 22:31:49 10° NNW 22:32:09 12° NNW 22:32:09 12° NNW visible
29 Jul -1.0 21:42:51 10° NNW 21:44:22 15° NNE 21:44:22 15° NNE visible
30 Jul -1.0 20:54:13 10° N 20:55:23 11° NNE 20:56:33 10° NE visible
30 Jul -0.3 22:29:17 10° NW 22:29:25 11° NW 22:29:25 11° NW visible
